[[[{"header":{"parameterUnit":"kt","parameterCategory":2,"dx":1,"dy":1,"la1":30.253999710083008,"la2":30.299108505249023,"lo1":-89.0895004272461,"lo2":-89.04439544677734,"nx":28,"ny":28,"refTime":"2022-09-22T21:00:00:Z","depth":"0","parameterNumber":2,"parameterNumberName":"U-component_of_CURRENTS"},"data":[0.4042,0.395,0.3885,0.3657,0.3552,0.3385,0.3362,0.3436,0.367,0.4099,0.4533,0.4944,0.5959,0.7167,0.7715,0.7756,0.7267,0.7082,0.6863,0.7453,0.7445,0.7437,0.7327,0.7504,0.7503,0.5965,0.5955,0.5947,0.4055,0.3968,0.3962,0.3824,0.3715,0.3726,0.3752,0.3743,0.3861,0.4265,0.4562,0.5475,0.6278,0.7039,0.796,0.7957,0.7647,0.7871,0.72,0.7131,0.7851,0.7765,0.8038,0.8039,0.8039,0.8039,0.8039,0.8039,0.3985,0.3995,0.3907,0.3883,0.3852,0.3804,0.3814,0.3911,0.4078,0.437,0.4722,0.5166,0.6105,0.7122,0.7382,0.7923,0.7628,0.7912,0.7837,0.7342,0.7155,0.774,0.8211,0.821,0.8209,0.8209,0.8208,0,0.3824,0.3766,0.3839,0.3789,0.381,0.3854,0.3941,0.4019,0.4264,0.4491,0.4826,0.5141,0.5955,0.6545,0.7211,0.7562,0.7394,0.7765,0.7557,0.7488,0.6837,0.6693,0.7246,0.7803,0.7799,0.7797,0.7795,0.7793,0.3467,0.3579,0.3631,0.3636,0.3705,0.3851,0.3915,0.4113,0.4241,0.4669,0.4794,0.5303,0.5672,0.644,0.6928,0.7443,0.7164,0.7675,0.7566,0.7266,0.7135,0.6598,0.6482,0.7756,0.7761,0.7765,0.7768,0,0.3242,0.3258,0.3467,0.3608,0.3633,0.3798,0.3948,0.4112,0.4367,0.466,0.4776,0.5193,0.5683,0.6057,0.6585,0.6736,0.7014,0.7229,0.7149,0.7142,0.7114,0.6995,0.6951,0.6858,0.7548,0.7552,0.7555,0,0.296,0.3134,0.3161,0.3319,0.3521,0.3662,0.3936,0.4149,0.4412,0.4644,0.4937,0.5181,0.5595,0.5934,0.617,0.6601,0.6668,0.6777,0.678,0.6774,0.6764,0.6643,0.6516,0.6858,0.6855,0.6852,0.685,0,0.274,0.2908,0.3103,0.3191,0.3439,0.3584,0.3728,0.4061,0.4243,0.4654,0.4791,0.5255,0.5456,0.5787,0.6055,0.5958,0.6555,0.6431,0.661,0.6604,0.6722,0.671,0.7016,0.6847,0.6846,0.6845,0.6844,0,0.2593,0.2692,0.2915,0.3164,0.3235,0.3376,0.3752,0.3946,0.4311,0.4464,0.4777,0.4928,0.5349,0.5263,0.5809,0.5628,0.5786,0.591,0.5924,0.5944,0.5747,0.6062,0.65,0.6305,0.5931,0.5924,0.5917,0,0.2451,0.2624,0.2687,0.2935,0.3084,0.3222,0.3435,0.3681,0.3887,0.416,0.443,0.4718,0.4749,0.4885,0.5126,0.5344,0.5567,0.5312,0.5602,0.5611,0.5597,0.5997,0.6054,0.6378,0.5829,0.5838,0.5845,0,0.2359,0.2507,0.2534,0.2671,0.2851,0.295,0.3178,0.3457,0.3659,0.3848,0.4145,0.4514,0.4588,0.4735,0.4844,0.5051,0.5404,0.4988,0.4994,0.5097,0.5836,0.5861,0.5922,0.5406,0.5418,0.5427,0.5774,0,0.2428,0.2484,0.2501,0.2668,0.2752,0.2849,0.3026,0.3155,0.3282,0.3441,0.379,0.3972,0.4251,0.4329,0.4399,0.4783,0.4714,0.4667,0.4571,0.4811,0.4916,0.4972,0.4255,0.4252,0.4249,0.4246,0,0,0.2381,0.2443,0.245,0.2534,0.2632,0.2706,0.2829,0.2947,0.3126,0.3271,0.3237,0.369,0.3801,0.4188,0.43,0.4296,0.4365,0.4261,0.4656,0.4701,0.4744,0.4859,0.4916,0.4241,0.424,0.4239,0.4238,0,0.2437,0.2411,0.2434,0.2511,0.2614,0.2702,0.2725,0.2851,0.2963,0.3149,0.3284,0.3494,0.3664,0.3879,0.3999,0.4227,0.4227,0.4231,0.4398,0.4622,0.4671,0.4714,0.4836,0.489,0.4231,0.4231,0.4232,0,0.2485,0.2516,0.2506,0.2558,0.2625,0.2731,0.2742,0.28,0.2948,0.2985,0.3197,0.3311,0.3474,0.3687,0.3773,0.3709,0.409,0.3916,0.3933,0.3988,0.4215,0.427,0.4319,0.369,0.3688,0.3686,0,0,0.2538,0.2527,0.2608,0.2576,0.261,0.2714,0.2748,0.2816,0.2928,0.2982,0.3087,0.3228,0.3414,0.3484,0.361,0.3744,0.3813,0.3852,0.3877,0.3898,0.3963,0.4194,0.4247,0.368,0.368,0.368,0,0,0.2573,0.2627,0.2666,0.2615,0.2698,0.2792,0.2803,0.2866,0.2988,0.3014,0.3115,0.3148,0.335,0.3357,0.327,0.3597,0.349,0.3508,0.3597,0.3629,0.3654,0.3711,0.326,0,0,0,0,0,0.2681,0.2616,0.265,0.2652,0.2702,0.2769,0.2785,0.2865,0.29,0.2926,0.3064,0.3056,0.337,0.3293,0.3311,0.3446,0.3599,0.3613,0.3627,0.3776,0.3809,0.3838,0,0,0,0,0,0,0.2682,0.2681,0.2653,0.273,0.2743,0.277,0.2824,0.2847,0.2901,0.2914,0.3037,0.3058,0.3121,0.3283,0.3299,0.3429,0.3254,0.3605,0.3617,0.3628,0.3787,0.3815,0.3838,0,0,0,0,0,0.2683,0.2683,0.2727,0.2734,0.2745,0.2841,0.2826,0.2845,0.2903,0.2996,0.302,0.2963,0.3118,0.314,0.3293,0.3423,0.3243,0.3249,0.3613,0.3622,0.3631,0.3801,0,0,0,0,0,0,0.2685,0.2723,0.2734,0.2742,0.2747,0.2845,0.2857,0.2844,0.2985,0.3007,0.2923,0.2931,0.3116,0.3133,0.315,0.3424,0.3233,0.324,0.3244,0.362,0.3627,0.3634,0,0,0,0,0,0,0.2724,0.2729,0.2738,0.2749,0.2761,0.2848,0.2858,0.2915,0.2987,0.2907,0.2917,0.2925,0.3097,0.3128,0.3141,0.3228,0.3226,0.3232,0.3236,0.3239,0.3626,0.3632,0,0,0,0,0,0,0.2729,0.2733,0.2748,0.2757,0.2767,0.2877,0.2904,0.2956,0.2971,0.2901,0.2976,0.2979,0.309,0.3106,0.3135,0.3215,0.3224,0.3226,0.3231,0.3233,0.3235,0,0,0,0,0,0,0,0.2733,0.2665,0.2674,0.2763,0.2772,0.2823,0.2826,0.2829,0.2972,0.2974,0.2976,0.2978,0.3192,0.3198,0.3205,0.3205,0,0,0.3226,0.3229,0,0,0,0,0,0,0,0,0.2667,0.2666,0.2674,0.2676,0.2677,0.2823,0.2826,0.2828,0.2972,0.2974,0.2975,0.2977,0.3194,0.3199,0.3204,0,0,0,0,0,0,0,0,0,0,0,0,0,0,0,0.2674,0.2676,0,0.2824,0.2826,0.2828,0.2972,0.2974,0.2975,0.2976,0.3195,0.32,0.3204,0,0,0,0,0,0,0,0,0,0,0,0,0,0,0,0,0,0,0,0,0,0,0,0,0,0,0,0,0,0,0,0,0,0,0,0,0,0,0,0,0,0,0,0,0,0,0,0,0,0,0,0,0,0,0,0,0,0,0,0,0,0,0,0,0,0,0,0,0]}],[{"header":{"parameterUnit":"kt","parameterCategory":2,"dx":1,"dy":1,"la1":30.253999710083008,"la2":30.299108505249023,"lo1":-89.0895004272461,"lo2":-89.04439544677734,"nx":28,"ny":28,"refTime":"2022-09-22T21:00:00:Z","depth":"0","parameterNumber":3,"parameterNumberName":"V-component_of_CURRENTS"},"data":[0.2723,0.2986,0.3128,0.3624,0.388,0.4292,0.4532,0.4813,0.5096,0.5458,0.5686,0.5858,0.55,0.2993,0.1155,0.0586,-0.0166,-0.0248,-0.0706,-0.0029,0.0036,0.0097,0.0086,-0.0536,-0.0538,-0.1518,-0.1528,-0.1536,0.2628,0.28,0.31,0.3493,0.3809,0.3974,0.4435,0.4665,0.4965,0.5229,0.5374,0.5378,0.4492,0.3583,0.2228,0.1277,0.0894,0.078,0.0685,0.0495,0.148,0.1524,0.1199,0.1199,0.1199,0.12,0.12,0.1201,0.248,0.265,0.291,0.3252,0.3574,0.3939,0.4217,0.4537,0.4861,0.5129,0.513,0.5194,0.4713,0.3754,0.2992,0.19,0.1896,0.1647,0.1415,0.1376,0.1148,0.2269,0.2039,0.2039,0.2038,0.2037,0.2037,0,0.2371,0.2456,0.2724,0.3065,0.337,0.3746,0.4133,0.432,0.4654,0.482,0.4968,0.4963,0.445,0.4003,0.3237,0.2773,0.2114,0.2307,0.1879,0.1708,0.1629,0.1279,0.2418,0.2329,0.233,0.2331,0.2331,0.2332,0.2167,0.2339,0.2741,0.2938,0.314,0.3522,0.3796,0.4118,0.4365,0.4609,0.472,0.4609,0.4588,0.3933,0.3334,0.273,0.2375,0.2348,0.235,0.1956,0.1609,0.1536,0.1323,0.2341,0.234,0.2339,0.2338,0,0.206,0.2237,0.2595,0.2987,0.3121,0.3386,0.3824,0.4079,0.4271,0.4525,0.4571,0.4606,0.4368,0.4012,0.3535,0.3187,0.2534,0.2562,0.2672,0.2556,0.1935,0.1718,0.136,0.1085,0.221,0.2207,0.2205,0,0.1969,0.2224,0.2511,0.2703,0.307,0.3303,0.3681,0.3891,0.4143,0.4357,0.4363,0.4441,0.4138,0.3916,0.3545,0.3096,0.3135,0.2719,0.258,0.2659,0.2653,0.2127,0.1885,0.2747,0.2749,0.2752,0.2753,0,0.1756,0.2181,0.2466,0.2607,0.302,0.3213,0.3438,0.3722,0.3927,0.4117,0.4194,0.4178,0.4119,0.3843,0.3456,0.3432,0.3084,0.2974,0.2639,0.2625,0.2489,0.2464,0.2245,0.2756,0.2757,0.2758,0.2758,0,0.1697,0.1915,0.2294,0.2657,0.2763,0.3001,0.3359,0.3606,0.3826,0.3893,0.3959,0.3891,0.3896,0.3696,0.3438,0.3485,0.3201,0.2995,0.2976,0.2729,0.2506,0.2323,0.2548,0.2146,0.2657,0.2658,0.2659,0,0.1432,0.1808,0.193,0.2331,0.2548,0.2675,0.2943,0.316,0.3288,0.3473,0.3431,0.3544,0.3407,0.3406,0.3357,0.3132,0.3061,0.3143,0.2603,0.2587,0.2481,0.2731,0.2803,0.2566,0.2671,0.267,0.2669,0,0.1205,0.1525,0.157,0.1751,0.2021,0.2174,0.2469,0.2726,0.2892,0.3019,0.3193,0.3296,0.3193,0.3178,0.308,0.3024,0.3061,0.2809,0.2793,0.2671,0.2823,0.275,0.2732,0.2952,0.2953,0.2954,0.2679,0,0.1203,0.1326,0.1419,0.1674,0.1811,0.1996,0.2159,0.2323,0.2381,0.2459,0.2643,0.2611,0.2649,0.268,0.2603,0.273,0.2575,0.2456,0.2222,0.2474,0.2316,0.2311,0.2245,0.2236,0.2229,0.2223,0,0,0.0946,0.1098,0.1097,0.1296,0.1416,0.1441,0.166,0.1772,0.1934,0.2012,0.196,0.2088,0.2044,0.22,0.2329,0.2291,0.2159,0.2202,0.2373,0.2392,0.2408,0.2272,0.2275,0.221,0.2207,0.2205,0.2202,0,0.0955,0.0913,0.103,0.1153,0.1304,0.1369,0.1425,0.1553,0.1625,0.1826,0.1746,0.1813,0.1872,0.1888,0.1882,0.2184,0.1908,0.2176,0.2405,0.2316,0.2344,0.2368,0.2242,0.225,0.2185,0.2186,0.2186,0,0.0862,0.0899,0.0908,0.1014,0.1081,0.1267,0.1145,0.1273,0.1444,0.1252,0.1476,0.1441,0.1378,0.1545,0.1592,0.1471,0.1643,0.163,0.1666,0.1639,0.1529,0.1566,0.1598,0.1168,0.1165,0.1164,0,0,0.0875,0.0908,0.0982,0.1012,0.107,0.1118,0.1166,0.12,0.1254,0.1279,0.1279,0.1266,0.1307,0.132,0.1339,0.1445,0.1276,0.152,0.1568,0.1608,0.1606,0.1508,0.1544,0.1156,0.1156,0.1155,0,0,0.0877,0.0919,0.091,0.0927,0.1042,0.1095,0.1154,0.1152,0.1217,0.1207,0.1109,0.1102,0.1248,0.1141,0.1058,0.1267,0.1052,0.1068,0.1374,0.1431,0.1477,0.148,0.0855,0,0,0,0,0,0.0904,0.0918,0.0909,0.0915,0.0955,0.1095,0.1109,0.1119,0.1054,0.1143,0.1141,0.0996,0.1111,0.1034,0.1021,0.1159,0.1055,0.1073,0.109,0.1508,0.157,0.1622,0,0,0,0,0,0,0.0907,0.0911,0.091,0.0949,0.096,0.1089,0.0985,0.099,0.1049,0.1047,0.1008,0.0993,0.0928,0.1028,0.1019,0.1155,0.0857,0.1062,0.1077,0.1091,0.1529,0.1579,0.1623,0,0,0,0,0,0.0909,0.0912,0.0959,0.0951,0.096,0.0988,0.0983,0.0987,0.1039,0.0968,0.0958,0.105,0.093,0.0919,0.1021,0.1164,0.0862,0.0859,0.1072,0.1084,0.1094,0.1554,0,0,0,0,0,0,0.091,0.0924,0.0963,0.0968,0.093,0.0986,0.0989,0.0984,0.0954,0.095,0.0999,0.0996,0.0932,0.0923,0.0915,0.118,0.0866,0.0863,0.0862,0.1081,0.109,0.1099,0,0,0,0,0,0,0.0923,0.0927,0.0965,0.0938,0.0941,0.0984,0.0987,0.0964,0.0949,0.0984,0.0983,0.0997,0.0905,0.0926,0.092,0.0889,0.0869,0.0867,0.0865,0.0864,0.1089,0.1096,0,0,0,0,0,0,0.0926,0.093,0.0936,0.0938,0.0941,0.1003,0.0961,0.0973,0.101,0.0981,0.1005,0.1002,0.0906,0.0901,0.0923,0.0896,0.0891,0.0869,0.0867,0.0866,0.0865,0,0,0,0,0,0,0,0.0929,0.0882,0.0931,0.0939,0.094,0.1021,0.1022,0.1024,0.1009,0.1007,0.1005,0.1003,0.0884,0.0881,0.0878,0.0902,0,0,0.0869,0.0868,0,0,0,0,0,0,0,0,0.0882,0.0882,0.0932,0.0933,0.0934,0.1021,0.1022,0.1024,0.1009,0.1007,0.1006,0.1004,0.0883,0.0881,0.0879,0,0,0,0,0,0,0,0,0,0,0,0,0,0,0,0.0932,0.0933,0,0.1022,0.1022,0.1023,0.1009,0.1007,0.1006,0.1005,0.0883,0.0881,0.0879,0,0,0,0,0,0,0,0,0,0,0,0,0,0,0,0,0,0,0,0,0,0,0,0,0,0,0,0,0,0,0,0,0,0,0,0,0,0,0,0,0,0,0,0,0,0,0,0,0,0,0,0,0,0,0,0,0,0,0,0,0,0,0,0,0,0,0,0,0]}]],[[{"header":{"parameterUnit":"kt","parameterCategory":2,"dx":1,"dy":1,"la1":30.253999710083008,"la2":30.299108505249023,"lo1":-89.0895004272461,"lo2":-89.04439544677734,"nx":28,"ny":28,"refTime":"2022-09-22T21:00:00:Z","depth":"2","parameterNumber":2,"parameterNumberName":"U-component_of_CURRENTS"},"data":[0.1283,0.1439,0.151,0.1755,0.1899,0.2069,0.2169,0.2249,0.2336,0.2354,0.2361,0.2526,0.2709,0.2259,0.2216,0.2094,0.2084,0.1975,0.3005,0.239,0.2408,0.2437,0.2224,0,0,0,0,0,0.1223,0.1337,0.1486,0.1686,0.1841,0.1939,0.2156,0.2226,0.247,0.2673,0.2922,0.2699,0.2754,0.2898,0.2663,0.271,0.2374,0.2676,0.214,0.2166,0.2188,0.2028,0.1942,0.1939,0.1937,0.1935,0,0,0.1143,0.1234,0.1381,0.1559,0.1724,0.1897,0.2007,0.2225,0.2481,0.2762,0.307,0.3268,0.3332,0.3387,0.3366,0.3276,0.3448,0.3179,0.3163,0.3155,0.3067,0.3046,0.3245,0.3251,0.3256,0.326,0.3264,0,0.1097,0.1161,0.1269,0.1454,0.1603,0.177,0.1977,0.2107,0.2364,0.2601,0.3011,0.3257,0.3613,0.3578,0.3756,0.3668,0.3338,0.3374,0.3789,0.2486,0.2438,0.2436,0.2429,0.2539,0.2542,0.2543,0.2544,0.2545,0.1066,0.1116,0.1294,0.1388,0.1464,0.1627,0.1762,0.1934,0.2106,0.2502,0.2661,0.3062,0.3344,0.3709,0.3628,0.3699,0.3717,0.34,0.3076,0.3372,0.3383,0.3349,0.3318,0.2569,0.2566,0.2563,0.2561,0,0.1068,0.112,0.123,0.1373,0.1433,0.1538,0.1759,0.1893,0.2049,0.2317,0.2398,0.2667,0.2986,0.3062,0.3215,0.3165,0.3286,0.3364,0.2876,0.2868,0.3277,0.3257,0.3606,0.3617,0.3626,0.3633,0.364,0,0.1076,0.114,0.1246,0.1293,0.1431,0.1503,0.1672,0.1775,0.1958,0.2159,0.2217,0.2434,0.2472,0.2672,0.2651,0.2909,0.2852,0.2892,0.2942,0.2475,0.2456,0.255,0.2532,0.2679,0.2677,0.2675,0.2673,0,0.1076,0.1164,0.1236,0.1276,0.141,0.1481,0.1566,0.1721,0.1847,0.2011,0.2142,0.2242,0.2388,0.2408,0.2543,0.2429,0.2743,0.2586,0.282,0.2836,0.2468,0.2451,0.2671,0.267,0.267,0.2669,0.2668,0,0.1089,0.1138,0.1206,0.1342,0.1371,0.1425,0.1601,0.1673,0.1829,0.191,0.2013,0.2084,0.2196,0.2124,0.2293,0.2236,0.2281,0.2316,0.2327,0.2539,0.2533,0.2292,0.2391,0.2455,0.2452,0.245,0.2447,0,0.1122,0.1163,0.1188,0.1272,0.1323,0.1407,0.148,0.1578,0.1673,0.1798,0.1846,0.1961,0.1918,0.1992,0.2019,0.2117,0.2171,0.2052,0.2262,0.227,0.2444,0.2623,0.2138,0.2354,0.2413,0.2417,0.2419,0,0.113,0.1187,0.1196,0.1254,0.1323,0.1359,0.1429,0.1528,0.1624,0.168,0.1801,0.184,0.1894,0.1923,0.1954,0.1995,0.2118,0.2011,0.2013,0.2103,0.2325,0.2548,0.2593,0.2118,0.2121,0.2123,0.2392,0,0.1185,0.1219,0.1219,0.1264,0.1302,0.1336,0.1399,0.1466,0.1538,0.1597,0.1707,0.1738,0.1831,0.1838,0.1847,0.1941,0.1983,0.1952,0.1925,0.1991,0.2104,0.2126,0.1865,0.1864,0.1864,0.1863,0,0,0.1224,0.1227,0.1246,0.1259,0.13,0.1359,0.1391,0.1432,0.1514,0.1575,0.1578,0.1714,0.1728,0.181,0.1833,0.1841,0.1912,0.184,0.1957,0.1967,0.1977,0.2087,0.2108,0.1862,0.1862,0.1862,0.1862,0,0.1221,0.125,0.1243,0.1274,0.132,0.135,0.1373,0.143,0.1481,0.1548,0.1596,0.1656,0.1714,0.1746,0.1767,0.1832,0.1863,0.1855,0.1885,0.1951,0.1962,0.1971,0.2082,0.2101,0.1861,0.1861,0.1861,0,0.1252,0.1264,0.1266,0.1294,0.1324,0.1349,0.1383,0.1416,0.146,0.1492,0.1576,0.1614,0.1649,0.1698,0.1727,0.1714,0.1831,0.1767,0.1771,0.1771,0.1838,0.1851,0.1862,0.1713,0.1712,0.1711,0,0,0.126,0.1259,0.1294,0.1298,0.1314,0.1365,0.1387,0.1421,0.1466,0.1497,0.1542,0.1593,0.163,0.1657,0.1683,0.1723,0.1761,0.1747,0.1754,0.1759,0.1763,0.1831,0.1843,0.1709,0.1709,0.1709,0,0,0.126,0.128,0.1312,0.1311,0.1345,0.137,0.1385,0.1431,0.149,0.1513,0.1542,0.1552,0.1614,0.1623,0.159,0.1672,0.1646,0.1653,0.1654,0.1663,0.167,0.1665,0.1563,0,0,0,0,0,0.1283,0.1272,0.1301,0.1306,0.134,0.1355,0.1363,0.1408,0.1453,0.1469,0.1529,0.1517,0.1617,0.1587,0.159,0.1614,0.1676,0.1681,0.1687,0.1699,0.1708,0.1716,0,0,0,0,0,0,0.1285,0.1289,0.1301,0.1321,0.133,0.1355,0.1385,0.1397,0.1452,0.1461,0.1509,0.1516,0.1517,0.1584,0.1587,0.161,0.1562,0.1678,0.1683,0.1687,0.1702,0.171,0.1716,0,0,0,0,0,0.1287,0.129,0.1332,0.1323,0.133,0.1385,0.1387,0.1397,0.1454,0.1463,0.1474,0.1493,0.1515,0.1522,0.1586,0.1609,0.1559,0.1561,0.1681,0.1685,0.1689,0.1706,0,0,0,0,0,0,0.1288,0.1302,0.1335,0.1339,0.1337,0.1386,0.1395,0.1397,0.1455,0.1465,0.1442,0.1448,0.1513,0.1519,0.1524,0.1609,0.1557,0.1559,0.1559,0.1684,0.1687,0.169,0,0,0,0,0,0,0.1301,0.1305,0.1337,0.1352,0.1359,0.1387,0.1395,0.1402,0.1455,0.1431,0.1437,0.1444,0.1507,0.1517,0.1521,0.1531,0.1556,0.1557,0.1558,0.1558,0.1687,0.1689,0,0,0,0,0,0,0.1304,0.1308,0.1352,0.1357,0.1363,0.1416,0.1396,0.1429,0.1465,0.1428,0.1469,0.1471,0.1504,0.1509,0.1518,0.1526,0.153,0.1556,0.1557,0.1557,0.1558,0,0,0,0,0,0,0,0.1306,0.1267,0.1308,0.136,0.1365,0.138,0.1381,0.1382,0.1465,0.1467,0.1469,0.1471,0.1548,0.155,0.1551,0.1523,0,0,0.1556,0.1556,0,0,0,0,0,0,0,0,0.1267,0.1267,0.1309,0.1309,0.131,0.138,0.1381,0.1382,0.1465,0.1467,0.1468,0.147,0.1549,0.155,0.1551,0,0,0,0,0,0,0,0,0,0,0,0,0,0,0,0.1309,0.1309,0,0.138,0.1381,0.1382,0.1466,0.1467,0.1468,0.1469,0.1549,0.155,0.1551,0,0,0,0,0,0,0,0,0,0,0,0,0,0,0,0,0,0,0,0,0,0,0,0,0,0,0,0,0,0,0,0,0,0,0,0,0,0,0,0,0,0,0,0,0,0,0,0,0,0,0,0,0,0,0,0,0,0,0,0,0,0,0,0,0,0,0,0,0]}],[{"header":{"parameterUnit":"kt","parameterCategory":2,"dx":1,"dy":1,"la1":30.253999710083008,"la2":30.299108505249023,"lo1":-89.0895004272461,"lo2":-89.04439544677734,"nx":28,"ny":28,"refTime":"2022-09-22T21:00:00:Z","depth":"2","parameterNumber":3,"parameterNumberName":"V-component_of_CURRENTS"},"data":[0.0018,0.0208,0.0303,0.066,0.0851,0.117,0.1363,0.162,0.1715,0.1774,0.1651,0.1328,0.0707,0.0178,-0.0365,-0.0688,-0.0756,-0.0731,-0.0668,-0.0651,-0.0645,-0.1055,-0.1028,0,0,0,0,0,-0.0056,0.0078,0.0246,0.0486,0.0688,0.0755,0.1037,0.1217,0.154,0.158,0.1678,0.1148,0.0656,0.0151,-0.0527,-0.0918,-0.0969,-0.102,-0.1056,-0.1057,-0.1058,-0.1041,-0.1047,-0.1047,-0.1047,-0.1047,0,0,-0.0161,-0.0058,0.0107,0.0285,0.0444,0.0657,0.0818,0.1001,0.1226,0.1425,0.1389,0.1335,0.0836,0.0089,-0.0321,-0.0774,-0.0791,-0.1017,-0.1019,-0.1021,-0.1,-0.0949,-0.0996,-0.0996,-0.0996,-0.0995,-0.0995,0,-0.0218,-0.0158,-0.0046,0.0145,0.0267,0.0417,0.0561,0.0685,0.078,0.0903,0.1105,0.1108,0.0733,0.0328,-0.0246,-0.0514,-0.0892,-0.0943,-0.0916,-0.1051,-0.1,-0.1033,-0.103,-0.1063,-0.1063,-0.1063,-0.1063,-0.1063,-0.0284,-0.0216,-0.0057,0.0036,0.0092,0.0198,0.0288,0.0328,0.0437,0.0546,0.0637,0.0548,0.0537,0.0131,-0.0297,-0.0691,-0.0773,-0.0941,-0.1026,-0.097,-0.1004,-0.1001,-0.0998,-0.1065,-0.1065,-0.1065,-0.1064,0,-0.0316,-0.0254,-0.0135,-0.0032,0.0006,0.0074,0.0193,0.0259,0.0251,0.0366,0.0364,0.0288,0.0148,-0.0152,-0.0432,-0.0647,-0.0876,-0.0946,-0.0911,-0.0942,-0.1005,-0.1001,-0.1032,-0.1031,-0.1031,-0.103,-0.1029,0,-0.035,-0.0279,-0.0179,-0.0129,-0.0022,-0.0013,0.0073,0.0063,0.0088,0.0175,0.0,0.0061,-0.0242,-0.036,-0.0595,-0.0786,-0.0803,-0.0976,-0.1013,-0.1026,-0.1023,-0.1037,-0.1034,-0.1058,-0.1058,-0.1058,-0.1058,0,-0.041,-0.0303,-0.0208,-0.018,-0.0106,-0.0076,-0.0058,-0.0076,-0.0038,-0.0104,-0.0078,-0.0228,-0.0258,-0.046,-0.0659,-0.0698,-0.085,-0.0929,-0.1006,-0.1004,-0.1034,-0.1032,-0.1057,-0.1057,-0.1057,-0.1057,-0.1057,0,-0.0445,-0.0384,-0.0275,-0.0194,-0.0177,-0.0144,-0.0123,-0.0116,-0.0166,-0.0195,-0.0267,-0.0344,-0.0444,-0.0536,-0.0724,-0.0704,-0.0827,-0.0924,-0.0929,-0.0895,-0.0945,-0.0977,-0.1,-0.099,-0.0989,-0.0989,-0.0988,0,-0.0503,-0.0403,-0.0392,-0.0309,-0.0261,-0.029,-0.0272,-0.0292,-0.0329,-0.0341,-0.0459,-0.049,-0.0599,-0.0624,-0.071,-0.0823,-0.0882,-0.0853,-0.0972,-0.0974,-0.0928,-0.0944,-0.096,-0.0991,-0.0981,-0.0982,-0.0982,0,-0.0559,-0.0488,-0.0481,-0.0435,-0.0428,-0.0416,-0.0412,-0.0417,-0.04,-0.0474,-0.0462,-0.0586,-0.0638,-0.0671,-0.075,-0.0812,-0.0871,-0.0865,-0.0869,-0.0864,-0.0976,-0.0938,-0.094,-0.0937,-0.0938,-0.0939,-0.0976,0,-0.0562,-0.0524,-0.0515,-0.0489,-0.0483,-0.0465,-0.0485,-0.0496,-0.0519,-0.0542,-0.0596,-0.0678,-0.072,-0.0773,-0.0811,-0.0864,-0.0873,-0.0915,-0.0905,-0.0921,-0.0936,-0.0941,-0.0892,-0.0892,-0.0892,-0.0892,0,0,-0.0618,-0.0579,-0.0612,-0.058,-0.0563,-0.0603,-0.0561,-0.0583,-0.0599,-0.0608,-0.063,-0.0718,-0.0769,-0.0815,-0.0836,-0.087,-0.0895,-0.0846,-0.0915,-0.0918,-0.092,-0.0935,-0.0939,-0.0893,-0.0893,-0.0893,-0.0893,0,-0.063,-0.0637,-0.0617,-0.0613,-0.0611,-0.0621,-0.0612,-0.0621,-0.063,-0.0638,-0.0681,-0.073,-0.0775,-0.0819,-0.0846,-0.0871,-0.0898,-0.09,-0.0856,-0.0917,-0.0919,-0.0921,-0.0935,-0.0938,-0.0894,-0.0894,-0.0894,0,-0.0658,-0.0659,-0.0658,-0.0651,-0.0657,-0.0636,-0.0658,-0.0655,-0.064,-0.0684,-0.068,-0.0735,-0.0782,-0.0822,-0.0839,-0.0834,-0.0889,-0.0876,-0.0876,-0.0842,-0.0904,-0.0906,-0.0908,-0.0877,-0.0876,-0.0876,0,0,-0.0667,-0.0666,-0.0667,-0.0654,-0.0653,-0.066,-0.0658,-0.066,-0.0674,-0.0677,-0.0698,-0.0731,-0.0773,-0.0785,-0.0825,-0.085,-0.0863,-0.0872,-0.0873,-0.0873,-0.084,-0.0901,-0.0904,-0.0875,-0.0875,-0.0875,0,0,-0.0677,-0.0682,-0.068,-0.066,-0.0665,-0.0679,-0.0674,-0.0671,-0.0683,-0.0683,-0.0711,-0.0719,-0.0753,-0.0771,-0.0754,-0.0826,-0.0825,-0.0829,-0.0805,-0.0806,-0.0807,-0.0757,-0.0776,0,0,0,0,0,-0.0701,-0.0683,-0.0681,-0.0678,-0.0674,-0.068,-0.0681,-0.0682,-0.0675,-0.0671,-0.0693,-0.0706,-0.0777,-0.0762,-0.077,-0.0789,-0.0862,-0.0864,-0.0867,-0.0843,-0.0844,-0.0845,0,0,0,0,0,0,-0.07,-0.0696,-0.0682,-0.0693,-0.0692,-0.068,-0.0687,-0.0688,-0.0676,-0.0675,-0.0702,-0.0708,-0.0735,-0.0759,-0.0766,-0.0784,-0.0773,-0.0863,-0.0865,-0.0867,-0.0843,-0.0844,-0.0845,0,0,0,0,0,-0.0699,-0.0696,-0.0684,-0.0694,-0.0693,-0.0694,-0.0686,-0.0687,-0.0677,-0.0712,-0.0716,-0.0674,-0.0734,-0.0741,-0.0764,-0.078,-0.0769,-0.0771,-0.0864,-0.0866,-0.0867,-0.0844,0,0,0,0,0,0,-0.0698,-0.0706,-0.0685,-0.0685,-0.0689,-0.0694,-0.0694,-0.0687,-0.0715,-0.0717,-0.0688,-0.0687,-0.0735,-0.074,-0.0745,-0.0778,-0.0765,-0.0767,-0.0769,-0.0865,-0.0867,-0.0868,0,0,0,0,0,0,-0.0707,-0.0706,-0.0685,-0.0679,-0.0679,-0.0695,-0.0694,-0.0721,-0.0716,-0.069,-0.069,-0.0687,-0.0732,-0.0739,-0.0743,-0.0785,-0.0762,-0.0764,-0.0766,-0.0767,-0.0866,-0.0867,0,0,0,0,0,0,-0.0707,-0.0706,-0.0679,-0.0679,-0.0679,-0.0687,-0.0721,-0.0721,-0.0693,-0.069,-0.0692,-0.0691,-0.0732,-0.0736,-0.0742,-0.0782,-0.0784,-0.0762,-0.0764,-0.0765,-0.0766,0,0,0,0,0,0,0,-0.0707,-0.0707,-0.0678,-0.0679,-0.0679,-0.0689,-0.0689,-0.069,-0.0693,-0.0692,-0.0692,-0.0692,-0.0748,-0.0751,-0.0754,-0.0779,0,0,-0.0762,-0.0763,0,0,0,0,0,0,0,0,-0.0708,-0.0707,-0.0678,-0.0678,-0.0678,-0.0689,-0.0689,-0.069,-0.0693,-0.0692,-0.0692,-0.0692,-0.0749,-0.0751,-0.0753,0,0,0,0,0,0,0,0,0,0,0,0,0,0,0,-0.0678,-0.0678,0,-0.0689,-0.0689,-0.069,-0.0693,-0.0692,-0.0692,-0.0692,-0.075,-0.0751,-0.0753,0,0,0,0,0,0,0,0,0,0,0,0,0,0,0,0,0,0,0,0,0,0,0,0,0,0,0,0,0,0,0,0,0,0,0,0,0,0,0,0,0,0,0,0,0,0,0,0,0,0,0,0,0,0,0,0,0,0,0,0,0,0,0,0,0,0,0,0,0]}]],[[{"header":{"parameterUnit":"kt","parameterCategory":2,"dx":1,"dy":1,"la1":30.253999710083008,"la2":30.299108505249023,"lo1":-89.0895004272461,"lo2":-89.04439544677734,"nx":28,"ny":28,"refTime":"2022-09-22T21:00:00:Z","depth":"4","parameterNumber":2,"parameterNumberName":"U-component_of_CURRENTS"},"data":[0.0542,0.0589,0.0619,0.0664,0.0732,0.0846,0.0944,0.1056,0.1059,0.1219,0.1237,0.1415,0.1453,0.153,0.1525,0.1545,0.1576,0.1718,0.1716,0.1822,0.1833,0.1844,0.1683,0,0,0,0,0,0.0592,0.0603,0.068,0.0788,0.0908,0.1006,0.1143,0.1259,0.1402,0.1364,0.1515,0.1487,0.1541,0.1588,0.1555,0.1672,0.1735,0.163,0.1712,0.1829,0.1842,0.1682,0,0,0,0,0,0,0.067,0.0687,0.0792,0.0909,0.1038,0.1115,0.1231,0.132,0.144,0.1641,0.1597,0.1702,0.181,0.1804,0.1762,0.1762,0.1753,0.1732,0.1749,0.1762,0.162,0.1565,0.1542,0,0,0,0,0,0.0743,0.0818,0.0889,0.1026,0.1146,0.1276,0.1428,0.1471,0.1673,0.1844,0.1851,0.1885,0.1892,0.1876,0.1899,0.1846,0.1967,0.1931,0.1938,0.1858,0.1838,0.1825,0.1821,0.1892,0.1893,0.1894,0.1895,0,0.0829,0.0871,0.1046,0.1121,0.1212,0.1391,0.1506,0.1727,0.1782,0.1981,0.1964,0.2061,0.2054,0.1994,0.1991,0.1978,0.1926,0.1965,0.1879,0.1858,0.1844,0.1836,0.1828,0.1905,0.1905,0.1904,0.1903,0,0.0857,0.0975,0.1068,0.1254,0.1315,0.1415,0.1662,0.175,0.1934,0.2011,0.2049,0.213,0.2105,0.2123,0.2109,0.2046,0.1997,0.1959,0.2051,0.2043,0.1854,0.1842,0.1923,0.1919,0.1916,0.1913,0.1911,0,0.0933,0.1004,0.116,0.1211,0.1338,0.1485,0.1637,0.1729,0.1907,0.1971,0.204,0.2034,0.2069,0.2072,0.2013,0.1952,0.2041,0.1871,0.1862,0.1917,0.1907,0.1916,0.1904,0.2007,0.2006,0.2005,0.2004,0,0.0939,0.1069,0.1166,0.1219,0.1396,0.1484,0.1606,0.1756,0.1852,0.1946,0.1997,0.2008,0.2032,0.2014,0.1944,0.1918,0.1971,0.1948,0.1844,0.1838,0.1904,0.1894,0.2002,0.2002,0.2001,0.2001,0.2001,0,0.0986,0.1065,0.1162,0.1317,0.1349,0.1441,0.1617,0.1713,0.1846,0.1885,0.1909,0.1897,0.1914,0.1837,0.1859,0.1808,0.1803,0.179,0.1795,0.1659,0.1613,0.1789,0.1859,0.1857,0.1855,0.1853,0.1852,0,0.1001,0.109,0.1162,0.1265,0.1314,0.1433,0.1541,0.1648,0.1709,0.1793,0.1788,0.181,0.1732,0.171,0.171,0.1676,0.1716,0.1643,0.1729,0.1733,0.1614,0.1645,0.1654,0.1826,0.183,0.1832,0.1834,0,0.1001,0.1119,0.1138,0.1193,0.1333,0.136,0.1478,0.1571,0.1651,0.1696,0.1766,0.1707,0.1692,0.1673,0.1616,0.1627,0.1683,0.1583,0.1584,0.1666,0.1777,0.1634,0.1636,0.1644,0.1646,0.1648,0.1816,0,0.1053,0.1126,0.1142,0.1225,0.1281,0.1337,0.1409,0.1482,0.156,0.1596,0.1635,0.1599,0.1601,0.1569,0.1527,0.1544,0.1548,0.1513,0.1522,0.1546,0.1616,0.163,0.1456,0.1455,0.1455,0.1454,0,0,0.1055,0.11,0.1139,0.1178,0.1244,0.1312,0.1352,0.1392,0.1468,0.1511,0.1523,0.1518,0.1509,0.1506,0.1493,0.1477,0.1499,0.148,0.1521,0.1528,0.1535,0.1603,0.1617,0.1453,0.1453,0.1453,0.1453,0,0.1036,0.111,0.1131,0.1168,0.1249,0.1275,0.1315,0.1354,0.1409,0.1465,0.1474,0.149,0.1485,0.1475,0.1461,0.1469,0.1474,0.1439,0.1485,0.1515,0.1523,0.153,0.1599,0.1612,0.1452,0.1452,0.1452,0,0.1033,0.109,0.1109,0.1168,0.1184,0.1219,0.1241,0.1303,0.1363,0.1362,0.1462,0.1439,0.1418,0.1421,0.1438,0.144,0.1474,0.1433,0.1435,0.1453,0.1485,0.1493,0.15,0.1409,0.1409,0.1409,0,0,0.103,0.1075,0.1112,0.1161,0.1177,0.1211,0.1248,0.1295,0.1332,0.1362,0.1402,0.1429,0.1415,0.1446,0.1431,0.1437,0.1463,0.1429,0.1431,0.1433,0.1452,0.1484,0.1491,0.1409,0.1409,0.1409,0,0,0.1008,0.1066,0.1099,0.116,0.1187,0.1189,0.1236,0.1281,0.1329,0.1376,0.1392,0.1405,0.1447,0.1441,0.1445,0.143,0.1419,0.1418,0.1446,0.1448,0.145,0.1477,0.1428,0,0,0,0,0,0.1006,0.1049,0.1078,0.1098,0.1151,0.1159,0.1165,0.1246,0.1308,0.1325,0.1383,0.1385,0.1439,0.1444,0.1441,0.1439,0.1411,0.1411,0.141,0.1445,0.1447,0.145,0,0,0,0,0,0,0.1013,0.1027,0.1079,0.1082,0.1099,0.1156,0.1201,0.1217,0.1309,0.1325,0.137,0.1381,0.1374,0.1443,0.1442,0.144,0.1429,0.1411,0.1411,0.141,0.1446,0.1448,0.145,0,0,0,0,0,0.1019,0.1031,0.111,0.1081,0.1095,0.1203,0.1203,0.1218,0.1284,0.1311,0.1327,0.1367,0.1369,0.1376,0.1442,0.1441,0.143,0.143,0.1411,0.141,0.141,0.1447,0,0,0,0,0,0,0.1024,0.0994,0.1113,0.1121,0.1135,0.1203,0.1216,0.1219,0.1265,0.1284,0.1301,0.1311,0.1364,0.137,0.1375,0.1442,0.1431,0.143,0.143,0.141,0.141,0.141,0,0,0,0,0,0,0.0992,0.0998,0.1116,0.1178,0.1192,0.1203,0.1215,0.1193,0.1265,0.1246,0.126,0.1306,0.1395,0.1366,0.137,0.1328,0.1432,0.1431,0.1431,0.143,0.141,0.141,0,0,0,0,0,0,0.0996,0.1002,0.1175,0.1185,0.1197,0.1265,0.1184,0.1244,0.1302,0.124,0.1317,0.1323,0.1391,0.1394,0.1366,0.1321,0.1326,0.1432,0.1431,0.1431,0.1431,0,0,0,0,0,0,0,0.0999,0.0943,0.1101,0.1191,0.1202,0.1197,0.1195,0.1194,0.1304,0.1309,0.1315,0.132,0.1435,0.1434,0.1434,0.1315,0,0,0.1432,0.1431,0,0,0,0,0,0,0,0,0.0942,0.0943,0.1102,0.1105,0.1108,0.1196,0.1195,0.1194,0.1305,0.1309,0.1314,0.1318,0.1435,0.1434,0.1434,0,0,0,0,0,0,0,0,0,0,0,0,0,0,0,0.1102,0.1105,0,0.1196,0.1195,0.1195,0.1305,0.1309,0.1313,0.1317,0.1434,0.1434,0.1434,0,0,0,0,0,0,0,0,0,0,0,0,0,0,0,0,0,0,0,0,0,0,0,0,0,0,0,0,0,0,0,0,0,0,0,0,0,0,0,0,0,0,0,0,0,0,0,0,0,0,0,0,0,0,0,0,0,0,0,0,0,0,0,0,0,0,0,0,0]}],[{"header":{"parameterUnit":"kt","parameterCategory":2,"dx":1,"dy":1,"la1":30.253999710083008,"la2":30.299108505249023,"lo1":-89.0895004272461,"lo2":-89.04439544677734,"nx":28,"ny":28,"refTime":"2022-09-22T21:00:00:Z","depth":"4","parameterNumber":3,"parameterNumberName":"V-component_of_CURRENTS"},"data":[0.0098,0.0173,0.021,0.0328,0.0378,0.0479,0.0513,0.051,0.0518,0.0471,0.035,0.0281,0.0048,0.0148,-0.0187,-0.0235,-0.0364,-0.0555,-0.0557,-0.0773,-0.078,-0.0786,-0.079,0,0,0,0,0,0.0058,0.012,0.0191,0.0261,0.0334,0.0373,0.0451,0.0442,0.0425,0.0462,0.0384,0.0307,0.007,-0.0047,-0.0183,-0.0272,-0.0532,-0.0437,-0.0616,-0.0777,-0.0784,-0.0787,0,0,0,0,0,0,0.0019,0.0057,0.0116,0.017,0.0242,0.0326,0.0317,0.0374,0.0366,0.0316,0.0339,0.0171,0.0056,-0.0172,-0.0259,-0.0402,-0.0496,-0.056,-0.0578,-0.0587,-0.0555,-0.0488,-0.0354,0,0,0,0,0,-0.0005,-0.0002,0.0035,0.0105,0.0143,0.02,0.0228,0.0239,0.02,0.0158,0.0161,0.0024,-0.006,-0.0275,-0.0384,-0.0508,-0.0738,-0.0716,-0.0724,-0.0853,-0.0826,-0.0855,-0.0862,-0.0812,-0.0813,-0.0813,-0.0814,0,-0.0009,-0.0014,0.0024,0.0057,0.0061,0.0044,0.0066,-0.0004,0.0029,-0.0025,0.0006,-0.0115,-0.0206,-0.0325,-0.0515,-0.0684,-0.071,-0.0733,-0.0869,-0.0838,-0.0864,-0.087,-0.0875,-0.082,-0.0819,-0.0819,-0.0818,0,0.0007,0.0004,0.001,0.0017,0.0023,0.0001,-0.0007,-0.0013,-0.0114,-0.0123,-0.0177,-0.0313,-0.0405,-0.055,-0.0675,-0.0754,-0.082,-0.0813,-0.0821,-0.0848,-0.0883,-0.0886,-0.0829,-0.0827,-0.0825,-0.0824,-0.0822,0,0.0042,0.0028,0.0051,0.0046,0.0037,0.0005,-0.0034,-0.0094,-0.0178,-0.0194,-0.038,-0.0405,-0.0644,-0.0689,-0.0791,-0.0844,-0.0863,-0.0922,-0.0942,-0.1016,-0.1018,-0.1045,-0.1051,-0.0997,-0.0997,-0.0997,-0.0997,0,0.0077,0.0082,0.0069,0.0064,0.0056,0.0022,-0.0015,-0.0104,-0.0151,-0.0319,-0.0372,-0.0554,-0.0657,-0.0745,-0.0846,-0.0898,-0.09,-0.0991,-0.0962,-0.0959,-0.1049,-0.1055,-0.0998,-0.0998,-0.0998,-0.0998,-0.0998,0,0.0106,0.0115,0.0107,0.0089,0.0081,0.0067,-0.0012,-0.0069,-0.021,-0.0322,-0.048,-0.0618,-0.0737,-0.0802,-0.091,-0.0924,-0.0966,-0.1006,-0.1007,-0.0984,-0.1033,-0.1017,-0.1029,-0.103,-0.103,-0.1031,-0.1031,0,0.0114,0.0122,0.0127,0.0108,0.0097,0.0039,-0.0001,-0.0094,-0.0211,-0.0351,-0.0515,-0.0678,-0.0776,-0.0886,-0.0916,-0.1018,-0.101,-0.102,-0.1088,-0.1088,-0.0986,-0.0984,-0.1071,-0.1036,-0.1036,-0.1035,-0.1035,0,0.0122,0.0125,0.0117,0.0098,0.0054,0.0046,-0.0016,-0.0107,-0.0183,-0.0389,-0.0516,-0.0697,-0.083,-0.0901,-0.1013,-0.1027,-0.1017,-0.1085,-0.1088,-0.1006,-0.1046,-0.0997,-0.0989,-0.1074,-0.1073,-0.1073,-0.1039,0,0.0144,0.0112,0.0115,0.0091,0.0073,0.0034,-0.0027,-0.0127,-0.0284,-0.0388,-0.0591,-0.0752,-0.0936,-0.0985,-0.1052,-0.1101,-0.1119,-0.1163,-0.1125,-0.1155,-0.1144,-0.1141,-0.1199,-0.12,-0.1201,-0.1202,0,0,0.012,0.0105,0.0083,0.0083,0.0046,-0.0051,-0.007,-0.0134,-0.0335,-0.0428,-0.0525,-0.0834,-0.0936,-0.1034,-0.1079,-0.1145,-0.116,-0.1112,-0.1172,-0.1169,-0.1166,-0.1153,-0.1149,-0.1204,-0.1205,-0.1205,-0.1206,0,0.0146,0.0092,0.0092,0.007,-0.0005,-0.0043,-0.0079,-0.02,-0.0304,-0.0458,-0.0608,-0.0765,-0.0945,-0.1019,-0.1072,-0.1155,-0.1149,-0.1213,-0.1159,-0.1181,-0.1176,-0.1172,-0.1159,-0.1154,-0.1208,-0.1208,-0.1208,0,0.0136,0.0103,0.0086,0.0036,-0.0017,-0.0031,-0.0137,-0.021,-0.027,-0.0434,-0.062,-0.0754,-0.0874,-0.0983,-0.1055,-0.1049,-0.113,-0.1141,-0.114,-0.1108,-0.113,-0.1126,-0.1123,-0.1147,-0.1146,-0.1145,0,0,0.0146,0.0131,0.0072,0.0032,0.0016,-0.009,-0.0139,-0.0225,-0.0352,-0.0431,-0.058,-0.0738,-0.084,-0.0917,-0.1015,-0.1095,-0.1094,-0.1124,-0.1128,-0.1129,-0.1099,-0.1121,-0.1119,-0.1141,-0.1141,-0.1141,0,0,0.0143,0.0092,0.0035,-0.0002,-0.0053,-0.0124,-0.0169,-0.0265,-0.042,-0.0491,-0.0618,-0.066,-0.0816,-0.0875,-0.0816,-0.0986,-0.0989,-0.1002,-0.0906,-0.0911,-0.0915,-0.0848,-0.082,0,0,0,0,0,0.0128,0.0119,0.007,0.0051,-0.0052,-0.0079,-0.0097,-0.0232,-0.0345,-0.0369,-0.0557,-0.0572,-0.0886,-0.0835,-0.0853,-0.086,-0.1088,-0.1097,-0.1106,-0.1005,-0.101,-0.1014,0,0,0,0,0,0,0.0121,0.0105,0.0069,0.0006,-0.002,-0.0079,-0.0191,-0.0226,-0.0346,-0.0372,-0.054,-0.0572,-0.0631,-0.0826,-0.0843,-0.0848,-0.0814,-0.1091,-0.1099,-0.1107,-0.1007,-0.101,-0.1014,0,0,0,0,0,0.0115,0.0101,-0.0037,0.0004,-0.0019,-0.0182,-0.0196,-0.0227,-0.0344,-0.0446,-0.0485,-0.046,-0.0623,-0.0652,-0.0836,-0.084,-0.0803,-0.0809,-0.1097,-0.1103,-0.1108,-0.1008,0,0,0,0,0,0,0.011,0.0084,-0.0045,-0.0057,-0.0049,-0.0185,-0.0211,-0.0226,-0.0416,-0.0451,-0.036,-0.0377,-0.0617,-0.0641,-0.0662,-0.0835,-0.0794,-0.08,-0.0804,-0.1101,-0.1106,-0.1111,0,0,0,0,0,0,0.009,0.0076,-0.0051,-0.011,-0.013,-0.0187,-0.0211,-0.0255,-0.0418,-0.032,-0.0339,-0.0366,-0.0618,-0.0632,-0.0649,-0.0709,-0.0787,-0.0793,-0.0797,-0.0799,-0.1105,-0.1109,0,0,0,0,0,0,0.0081,0.0069,-0.0108,-0.0122,-0.0141,-0.0283,-0.0232,-0.0351,-0.0416,-0.031,-0.0432,-0.044,-0.0608,-0.0627,-0.0639,-0.069,-0.0704,-0.0787,-0.0791,-0.0794,-0.0796,0,0,0,0,0,0,0,0.0075,0.0188,0.0021,-0.0133,-0.0149,-0.017,-0.0173,-0.0176,-0.0417,-0.0424,-0.0431,-0.0437,-0.0752,-0.0759,-0.0765,-0.0675,0,0,-0.0786,-0.0789,0,0,0,0,0,0,0,0,0.019,0.0189,0.002,0.0017,0.0014,-0.0171,-0.0173,-0.0175,-0.0418,-0.0424,-0.0429,-0.0434,-0.0754,-0.0759,-0.0765,0,0,0,0,0,0,0,0,0,0,0,0,0,0,0,0.002,0.0017,0,-0.0171,-0.0173,-0.0175,-0.0419,-0.0424,-0.0428,-0.0432,-0.0755,-0.076,-0.0764,0,0,0,0,0,0,0,0,0,0,0,0,0,0,0,0,0,0,0,0,0,0,0,0,0,0,0,0,0,0,0,0,0,0,0,0,0,0,0,0,0,0,0,0,0,0,0,0,0,0,0,0,0,0,0,0,0,0,0,0,0,0,0,0,0,0,0,0,0]}]]]